Terminal Aerodrome Forecast
Issued by NWS Raleigh/Durham, NC

Home | Current Version | Previous Version | Text Only | Print | Product List | Glossary On
Versions: 1 2 3 4 5 6 7 8 9 10 11 12 13 14 15 16 17 18 19 20 21 22 23 24 25 26 27 28 29 30 31 32 33 34 35 36 37 38 39 40 41 42 43 44 45
000
FTUS42 KRAH 220202 AAA
TAFGSO
TAF AMD
KGSO 220202Z 2202/2224 24007KT P6SM VCSH FEW050 SCT100 BKN250
     FM220600 29008KT P6SM FEW060 SCT090
     FM221200 34008KT P6SM SCT090=

USA.gov is the U.S. government's official web portal to all federal, state and local government web resources and services.